Regional Weather Roundup
Issued by NWS

Home | Current Version | Previous Version | Text Only | Print | Product List | Glossary Off
Versions: 1 2 3 4 5 6 7 8 9 10 11 12 13 14 15 16 17 18 19 20 21 22 23 24 25 26 27 28 29 30 31 32 33 34 35 36 37 38 39 40 41 42 43 44 45 46 47 48 49 50

000
ASUS43 KFSD 230102
RWRSD

WEATHER ROUNDUP FOR SOUTH DAKOTA
NATIONAL WEATHER SERVICE SIOUX FALLS SD
800 PM CDT FRI SEP 22 2017

NOTE: "FAIR" INDICATES FEW OR NO CLOUDS BELOW 12,000 FEET WITH NO
SIGNIFICANT WEATHER AND/OR OBSTRUCTIONS TO VISIBILITY.


SDZ001>005-009-010-012>017-230200-
NORTHWEST AND NORTH CENTRAL SOUTH DAKOTA

CITY           SKY/WX    TMP DP  RH WIND       PRES   REMARKS
BUFFALO          N/A     48  36  63 N17       29.92R
FAITH            N/A     49  42  77 N21       29.92R
MOBRIDGE       CLOUDY    53  46  77 NW17G25   29.84R
$$

SDZ012>016-024>037-041>051-057-063-072>074-230200-
SOUTHWEST AND SOUTH CENTRAL SOUTH DAKOTA

CITY           SKY/WX    TMP DP  RH WIND       PRES   REMARKS
RAPID CTY ARPT NOT AVBL
PIERRE         PTCLDY    55  45  68 NW23G29   29.81F
CUSTER         CLOUDY    51  38  60 N3        29.97R
ELLSWORTH AFB  CLOUDY    53  37  54 N15G23    29.93R
PHILIP         PTCLDY    54  42  64 N14       29.88S
PINE RIDGE     CLEAR     57  41  55 N12       29.89R
SPEARFISH      CLOUDY    48  37  66 NW7       30.00R
WINNER         FAIR      62  50  64 N14       29.82R
$$

SDZ004>011-016>023-039-040-230200-
NORTHEAST SOUTH DAKOTA

CITY           SKY/WX    TMP DP  RH WIND       PRES   REMARKS
ABERDEEN       PTCLDY    63  59  87 NW16G22   29.75R
WATERTOWN      PTCLDY    72  63  73 SW8       29.73R
BROOKINGS      TSTM      75  67  76 SE8       29.74R
SISSETON         N/A     80  62  54 SW9       29.66R
$$

SDZ017-020-022-023-036>040-048>070-230200-
SOUTHEAST SOUTH DAKOTA

CITY           SKY/WX    TMP DP  RH WIND       PRES   REMARKS
SIOUX FALLS    CLOUDY    86  69  56 S13       29.74R
HURON          CLOUDY    69  58  67 NW13      29.79R
CHAMBERLAIN    PTCLDY    65  55  70 NW10      29.81R
MITCHELL       CLOUDY    69  62  78 N7        29.78R THUNDER
YANKTON        CLOUDY    84  63  49 NW21G38   29.76R
$$

ABBREVIATIONS USED IN REMARKS
   TC - TEMPERATURE IN CELSIUS
  WCI - WIND CHILL INDEX
   HX - HEAT INDEX
  VSB - VISIBILITY





USA.gov is the U.S. government's official web portal to all federal, state and local government web resources and services.